TimeCDT,TemperatureF,Dew PointF,Humidity,Sea Level PressureIn,VisibilityMPH,Wind Direction,Wind SpeedMPH,Gust SpeedMPH,PrecipitationIn,Events,Conditions,WindDirDegrees,DateUTC
12:15 AM,60.8,53.6,77,29.94,10.0,SSE,8.1,-,N/A,,Clear,150,2012-10-04 05:15:00
12:35 AM,60.8,53.6,77,29.94,10.0,South,8.1,-,N/A,,Clear,170,2012-10-04 05:35:00
12:55 AM,60.8,53.6,77,29.94,10.0,SSE,8.1,-,N/A,,Clear,160,2012-10-04 05:55:00
1:15 AM,59.0,53.6,82,29.94,10.0,SSE,6.9,-,N/A,,Clear,160,2012-10-04 06:15:00
1:35 AM,59.0,53.6,82,29.94,10.0,South,8.1,-,N/A,,Clear,170,2012-10-04 06:35:00
1:55 AM,59.0,53.6,82,29.94,10.0,South,6.9,-,N/A,,Clear,180,2012-10-04 06:55:00
2:15 AM,59.0,53.6,82,29.95,10.0,South,8.1,-,N/A,,Clear,170,2012-10-04 07:15:00
2:35 AM,59.0,53.6,82,29.95,10.0,South,8.1,-,N/A,,Clear,180,2012-10-04 07:35:00
2:55 AM,59.0,53.6,82,29.95,10.0,South,6.9,-,N/A,,Clear,190,2012-10-04 07:55:00
3:15 AM,59.0,53.6,82,29.95,10.0,South,6.9,-,N/A,,Clear,190,2012-10-04 08:15:00
3:35 AM,57.2,51.8,82,29.95,10.0,South,5.8,-,N/A,,Clear,190,2012-10-04 08:35:00
3:55 AM,55.4,53.6,94,29.95,10.0,SSW,6.9,-,N/A,,Clear,200,2012-10-04 08:55:00
4:15 AM,55.4,53.6,94,29.96,10.0,SSW,4.6,-,N/A,,Clear,210,2012-10-04 09:15:00
4:35 AM,53.6,51.8,94,29.99,10.0,West,5.8,-,N/A,,Clear,270,2012-10-04 09:35:00
4:55 AM,53.6,51.8,94,29.99,10.0,NW,9.2,-,N/A,,Clear,310,2012-10-04 09:55:00
5:15 AM,55.4,51.8,88,30.01,10.0,NNW,19.6,23.0,N/A,,Clear,340,2012-10-04 10:15:00
5:35 AM,55.4,50.0,82,30.02,7.0,North,27.6,34.5,N/A,,Clear,350,2012-10-04 10:35:00
5:55 AM,55.4,44.6,67,30.06,7.0,North,27.6,36.8,N/A,,Clear,360,2012-10-04 10:55:00
6:15 AM,53.6,42.8,67,30.07,7.0,North,25.3,38.0,N/A,,Clear,360,2012-10-04 11:15:00
6:35 AM,53.6,42.8,67,30.09,10.0,North,26.5,35.7,N/A,,Clear,360,2012-10-04 11:35:00
6:55 AM,51.8,41.0,67,30.11,10.0,North,26.5,34.5,N/A,,Clear,360,2012-10-04 11:55:00
7:15 AM,51.8,41.0,67,30.12,10.0,North,24.2,34.5,N/A,,Clear,360,2012-10-04 12:15:00
7:35 AM,50.0,39.2,66,30.13,10.0,North,26.5,38.0,N/A,,Clear,10,2012-10-04 12:35:00
7:55 AM,50.0,37.4,62,30.14,10.0,North,20.7,29.9,N/A,,Clear,10,2012-10-04 12:55:00
8:15 AM,50.0,39.2,66,30.15,10.0,North,23.0,29.9,N/A,,Clear,10,2012-10-04 13:15:00
8:35 AM,50.0,39.2,66,30.16,10.0,North,25.3,32.2,N/A,,Scattered Clouds,10,2012-10-04 13:35:00
8:55 AM,51.8,41.0,67,30.18,10.0,North,23.0,33.4,N/A,,Overcast,10,2012-10-04 13:55:00
9:15 AM,51.8,39.2,62,30.18,10.0,NNE,23.0,29.9,N/A,,Overcast,20,2012-10-04 14:15:00
9:35 AM,53.6,41.0,62,30.20,10.0,North,17.3,26.5,N/A,,Overcast,10,2012-10-04 14:35:00
9:55 AM,53.6,41.0,62,30.20,10.0,NNE,23.0,28.8,N/A,,Overcast,20,2012-10-04 14:55:00
10:15 AM,53.6,41.0,62,30.21,10.0,North,21.9,31.1,N/A,,Overcast,10,2012-10-04 15:15:00
10:35 AM,53.6,39.2,58,30.22,10.0,North,21.9,28.8,N/A,,Overcast,10,2012-10-04 15:35:00
10:55 AM,53.6,37.4,54,30.22,10.0,North,23.0,27.6,N/A,,Overcast,10,2012-10-04 15:55:00
11:15 AM,53.6,37.4,54,30.23,10.0,NNE,21.9,25.3,N/A,,Overcast,20,2012-10-04 16:15:00
11:35 AM,53.6,37.4,54,30.24,10.0,NNE,17.3,27.6,N/A,,Overcast,20,2012-10-04 16:35:00
11:55 AM,53.6,35.6,51,30.24,10.0,NNE,16.1,25.3,N/A,,Overcast,20,2012-10-04 16:55:00
12:15 PM,55.4,37.4,51,30.24,10.0,NNE,19.6,27.6,N/A,,Overcast,30,2012-10-04 17:15:00
12:35 PM,55.4,35.6,47,30.25,10.0,NNE,16.1,25.3,N/A,,Overcast,20,2012-10-04 17:35:00
12:55 PM,55.4,37.4,51,30.25,10.0,NNE,16.1,24.2,N/A,,Overcast,20,2012-10-04 17:55:00
1:15 PM,57.2,37.4,48,30.24,10.0,NNE,15.0,20.7,N/A,,Overcast,30,2012-10-04 18:15:00
1:35 PM,59.0,37.4,45,30.24,10.0,NNE,15.0,26.5,N/A,,Overcast,20,2012-10-04 18:35:00
1:55 PM,59.0,37.4,45,30.24,10.0,North,13.8,-,N/A,,Overcast,10,2012-10-04 18:55:00
2:15 PM,59.0,37.4,45,30.24,10.0,North,15.0,19.6,N/A,,Overcast,10,2012-10-04 19:15:00
2:35 PM,59.0,37.4,45,30.22,10.0,NNE,10.4,23.0,N/A,,Overcast,20,2012-10-04 19:35:00
2:55 PM,60.8,39.2,45,30.21,10.0,NE,12.7,18.4,N/A,,Mostly Cloudy,40,2012-10-04 19:55:00
3:15 PM,60.8,39.2,45,30.21,10.0,NNE,10.4,18.4,N/A,,Scattered Clouds,30,2012-10-04 20:15:00
3:35 PM,60.8,41.0,48,30.20,10.0,NNE,9.2,16.1,N/A,,Scattered Clouds,20,2012-10-04 20:35:00
3:55 PM,60.8,41.0,48,30.20,10.0,NNE,9.2,-,N/A,,Clear,20,2012-10-04 20:55:00
4:15 PM,62.6,41.0,45,30.20,10.0,ENE,9.2,-,N/A,,Clear,60,2012-10-04 21:15:00
4:35 PM,60.8,41.0,48,30.20,10.0,ENE,8.1,-,N/A,,Clear,60,2012-10-04 21:35:00
4:55 PM,62.6,42.8,48,30.19,10.0,ENE,6.9,-,N/A,,Clear,60,2012-10-04 21:55:00
5:15 PM,62.6,41.0,45,30.18,10.0,NE,6.9,-,N/A,,Clear,40,2012-10-04 22:15:00
5:35 PM,62.6,41.0,45,30.18,10.0,East,8.1,-,N/A,,Clear,90,2012-10-04 22:35:00
5:55 PM,60.8,41.0,48,30.18,10.0,East,4.6,-,N/A,,Clear,80,2012-10-04 22:55:00
6:15 PM,60.8,41.0,48,30.18,10.0,East,6.9,-,N/A,,Clear,80,2012-10-04 23:15:00
6:35 PM,59.0,41.0,51,30.18,10.0,ENE,5.8,-,N/A,,Clear,70,2012-10-04 23:35:00
6:55 PM,59.0,42.8,55,30.18,10.0,East,6.9,-,N/A,,Clear,80,2012-10-04 23:55:00
7:15 PM,57.2,41.0,55,30.18,10.0,East,5.8,-,N/A,,Clear,90,2012-10-05 00:15:00
7:35 PM,55.4,42.8,63,30.19,10.0,East,5.8,-,N/A,,Clear,80,2012-10-05 00:35:00
8:15 PM,53.6,42.8,67,30.19,10.0,East,5.8,-,N/A,,Clear,90,2012-10-05 01:15:00
8:35 PM,53.6,44.6,72,30.20,10.0,East,6.9,-,N/A,,Clear,100,2012-10-05 01:35:00
9:15 PM,51.8,42.8,71,30.19,10.0,ESE,5.8,-,N/A,,Clear,110,2012-10-05 02:15:00
9:35 PM,50.0,42.8,76,30.19,10.0,East,5.8,-,N/A,,Clear,100,2012-10-05 02:35:00
9:55 PM,50.0,41.0,71,30.20,10.0,East,5.8,-,N/A,,Clear,100,2012-10-05 02:55:00
10:15 PM,50.0,42.8,76,30.20,10.0,East,5.8,-,N/A,,Clear,100,2012-10-05 03:15:00
10:35 PM,50.0,42.8,76,30.20,10.0,East,4.6,-,N/A,,Clear,100,2012-10-05 03:35:00
10:55 PM,50.0,42.8,76,30.19,10.0,East,5.8,-,N/A,,Clear,100,2012-10-05 03:55:00
11:15 PM,50.0,42.8,76,30.18,10.0,East,5.8,-,N/A,,Clear,100,2012-10-05 04:15:00
11:35 PM,50.0,42.8,76,30.19,10.0,East,4.6,-,N/A,,Clear,100,2012-10-05 04:35:00
11:55 PM,50.0,42.8,76,30.19,10.0,East,4.6,-,N/A,,Clear,90,2012-10-05 04:55:00